Commit Graph

322 Commits

Author SHA1 Message Date
Chris R 84203a5d45 React to OpenIdConnectMessage namespace change. 2015-07-31 11:09:29 -07:00
Victor Hurdugaci 04c33bffd0 React to DNX renames 2015-07-29 11:49:38 -07:00
Hao Kung 3646d6ed6e Fix build breaks 2015-07-16 13:41:35 -07:00
Hao Kung 668dd349d2 React to security renames 2015-07-16 13:15:08 -07:00
Hao Kung 62f5d79df2 Reenable social tests 2015-07-01 19:07:34 -07:00
Hao Kung f78d41095d Disable smoke tests for now 2015-07-01 18:18:15 -07:00
Hao Kung 856f510168 Add missed file 2015-07-01 16:01:39 -07:00
Hao Kung eeb39d01e4 React to pinpoint PR 2015-07-01 15:50:46 -07:00
Kiran Challa 04cf85d9fa Skipped test temporarily 2015-06-30 15:27:06 -07:00
Kiran Challa ae379c5dd2 Fixed build break 2015-06-29 18:01:21 -07:00
Kiran Challa 761a182145 Reacting to Session, Authentication changes 2015-06-29 12:15:34 -07:00
Kiran Challa f5a880ba32 React to Session api changes 2015-06-29 12:14:22 -07:00
Arthur Vickers c6b92fe16c React to EF changes 2015-06-25 16:01:25 -07:00
Arthur Vickers 88288ae9d3 React to EF name changes 2015-06-23 16:00:56 -07:00
Chris R f9ed27c3a0 React to removal of ErrorPageOptions.ShowAll. 2015-06-16 12:09:18 -07:00
Kiran Challa f2d9594799 Fix build break 2015-05-26 15:42:51 -07:00
Kiran Challa 116593f091 Fixed test 2015-05-26 15:22:36 -07:00
Kiran Challa 146cf8e095 Fixed test 2015-05-26 15:18:21 -07:00
Kiran Challa 33cc8b06c9 React to Security change where instead of 401 Unauthorized, 403 Forbidden is going to be returned for authenticated users when trying to access unauthorized resource. 2015-05-26 14:54:55 -07:00
Kiran Challa 24be0672fd React to MVC ViewComponent's Activate changes 2015-05-22 12:16:15 -07:00
Kirthi Krishnamraju 54ddefe88c React to aspnet/Configuration #194 2015-05-22 06:14:17 -07:00
Ryan Nowak c428ddffa3 React to removal of [Activate] for ViewComponents 2015-05-21 23:03:30 -07:00
Kiran Challa 9e62751649 Fixed for build break 2015-05-21 16:47:40 -07:00
Kiran Challa d2f041def9 Fixed test 2015-05-21 16:43:15 -07:00
Kirthi Krishnamraju 7968239891 React to aspnet/Configuration #195,#198 2015-05-20 23:40:16 -07:00
Chris R 5694f79af4 React to IRequestCookieFeature API change. 2015-05-20 12:51:38 -07:00
Kirthi Krishnamraju d298c9206e React to aspnet/Configuration #197 2015-05-18 15:35:41 -07:00
Suhas Joshi 170bad48c4 Fixed formatting 2015-05-18 15:26:46 -07:00
Suhas Joshi b2d34bfb6b Disabling tests to unblock CI 2015-05-18 11:38:16 -07:00
Victor Hurdugaci aa2d38d6c1 Better error handling 2015-05-11 16:31:44 -07:00
Victor Hurdugaci 0593c0def7 Add the exit code to the remote result 2015-05-11 14:34:05 -07:00
Victor Hurdugaci 7839b80f04 Scripts to run tests remotely 2015-05-08 14:08:13 -07:00
Chris R b7f4058c28 React to Http namespace changes. 2015-05-07 15:31:35 -07:00
Youngjune Hong 8c9969ed3f Updated OpenIdConnectTest for a build break 2015-05-05 03:07:19 -07:00
Youngjune Hong 3c1f3c94e9 Fixing a build break by adding ISystemClock services to the E2E startup 2015-05-04 16:03:31 -07:00
Youngjune Hong 797f802906 Adding the unit tests for ViewComponents in MusicStore 2015-05-04 10:18:35 -07:00
Troy Dai 223724c13e React to OperationSystems option change 2015-04-24 13:32:46 -07:00
Chris Ross 2063ad5f67 React to Auth API changes. 2015-04-24 12:03:19 -07:00
Praburaj cedfd88254 Disabling openidconnect coreclr variation temporarily
OpenIdconnect fails on latest coreclr. Until this is fixed disabling the coreclr variation.
https://github.com/aspnet/Security/issues/223
2015-04-21 12:48:46 -07:00
Praburaj 0929aa23df Enclosing a bunch of test only code within #if TESTING 2015-04-18 18:03:17 -07:00
Praburaj 5b4aed8dcc Fixing the configoverride.json location 2015-04-17 21:59:12 -07:00
Praburaj c384fcc3c2 Deployment helpers moved to hosting repo. 2015-04-17 14:51:58 -07:00
Praburaj 94ff5f85f0 Skipping mono tests on both clr and coreclr. 2015-04-17 12:00:10 -07:00
Praburaj 9027ce0982 Fixing the RuntimeInformation enum change
Also changing casing for some of the enums.
2015-04-17 11:57:22 -07:00
Chris Ross b4903e22d1 Handle Http.Core rename. 2015-04-16 17:18:34 -07:00
Praburaj ecb6184214 Using IRuntimeEnvironment to detect if mono 2015-04-16 15:14:17 -07:00
Praburaj 9c5d86d4c0 Enabling host shutdown events. 2015-04-16 11:55:54 -07:00
Praburaj c44e65c27f Stabilizing IIS helpers. 2015-04-16 11:34:22 -07:00
Praburaj 9eca47b388 Changing all validators to async 2015-04-15 23:59:04 -07:00
Praburaj 0083778faf Helpers async 2015-04-15 23:35:47 -07:00
Praburaj bea42ef0ca Making tests async 2015-04-15 23:21:44 -07:00
Praburaj 9c8fa0f3f9 Return HttpResponseMessage from RetryHelper 2015-04-15 23:15:12 -07:00
Praburaj 0823c5802c Cleanup. 2015-04-15 21:51:46 -07:00
Praburaj cae0d494a9 Moving some logging into the helpers 2015-04-15 21:37:15 -07:00
Praburaj edec7e9cce Changing the retry interval to 1 second with retry count = 60
Also exposing a host shutdown token to prevent retries after the process died.
2015-04-15 16:59:48 -07:00
Praburaj 64977e14a9 Fixing IIS variations 2015-04-15 16:06:54 -07:00
Praburaj 76d0d56b5d Setting DNX_APPBASE from the deployment helpers 2015-04-15 15:09:15 -07:00
Praburaj 6dd1fd7dc1 Selfhost does not seem to like CreateNoWindow on CI. 2015-04-15 14:36:22 -07:00
Praburaj eac23bc1d8 Moving some helpers into validator class 2015-04-15 13:49:57 -07:00
Chris Ross 7641ca3722 Handle change to cookie parser. 2015-04-15 10:25:47 -07:00
Praburaj 062722f1fb Some diagnostic messages cleanup on deployment helpers 2015-04-15 10:01:44 -07:00
Praburaj 7c5e95818f Adding more diagnostics for iis express process. 2015-04-15 09:48:24 -07:00
Praburaj 2f0eafa2a3 Scoping a work around previously applied for a Dnx bug 2015-04-14 17:09:51 -07:00
Praburaj 7f5f88081b Honoring the DNX_PACKAGES environment variable. 2015-04-14 17:03:18 -07:00
Praburaj 607ba4aef0 Overriding the environment variables as some of these environment variables are set on CI machines. 2015-04-14 16:32:37 -07:00
Praburaj 29ef86fad3 Move deployment helpers out of the test project. 2015-04-14 15:46:42 -07:00
Troy Dai dcac97fe3b React to configuration model change 2015-04-10 11:42:23 -07:00
Praburaj aac9beb1fd Adding a coreclr variation of openidconnect 2015-04-06 13:56:44 -07:00
Praburaj ba80195851 Tag helpers 2015-04-05 20:35:06 -07:00
Doug Bunting 55e7e83375 Merge remote-tracking branch 'origin/release' into dev 2015-04-03 12:02:13 -07:00
Doug Bunting 18153af367 Add a few more `<Service/>` items 2015-04-02 23:01:54 -07:00
Doug Bunting df29aaaafd Update .xproj files for Microsoft.Web.AspNet.* -> Microsoft.DNX.* rename 2015-04-02 13:49:27 -07:00
Praburaj 5d37101760 Fixing namespaces.
My VS build succeeds even without this change. On CI it seems to fail.
2015-04-01 14:19:47 -07:00
Praburaj 3b8d53e010 Fixing namespaces.
My VS build succeeds even without this change. On CI it seems to fail.
2015-04-01 13:59:57 -07:00
Praburaj 9ccc667b54 Fixing the logging package names in the unit test projects. 2015-04-01 13:34:45 -07:00
Praburaj 09a7250ccd Fixing the logging package names in the unit test projects. 2015-04-01 13:25:13 -07:00
Wei Wang 2aaeedc48a Fix newly added --no-source variations 2015-03-30 17:09:51 -07:00
Wei Wang 40edad4953 Merge remote-tracking branch 'origin/release' into dev 2015-03-30 15:23:49 -07:00
Praburaj 2f36a9cd6b Using optional configuration for IIS deployment 2015-03-30 11:54:10 -07:00
Wei Wang 1e29b52278 Rename "dnu bundle" to "dnu publish" 2015-03-28 12:10:12 -07:00
Praburaj a3b1954810 Changing --no-source variation to use desktop clr
Looks like --no-source is failing with coreclr
2015-03-27 15:28:04 -07:00
Praburaj 6dbe8dd993 Enabling --no-source variations 2015-03-27 14:51:59 -07:00
Praburaj 14889fe6eb Adding a trait for tests and some general refactoring 2015-03-26 17:08:38 -07:00
Praburaj 1eb38e5708 Adding CORS to the sample 2015-03-26 17:08:28 -07:00
Praburaj 4ccf7b090b Fixing test helpers
The command to execute tests have changed to dnx . test. As a result the path to dnx.exe cannot be retrieved from Environment.CommandLineArgs().

Changing the way to obtain path to dnx.exe.
2015-03-25 09:57:03 -07:00
Praburaj b233a7ee25 Re-enabling coreclr based E2E tests 2015-03-24 17:30:29 -07:00
Suhas Joshi 83d9003b7a React to Identity changes 2015-03-24 13:07:41 -07:00
Wei Wang 0f0fc2e23e Rename kpm to dnu 2015-03-24 00:36:00 -07:00
ajcvickers 9b188a047d Use UseSqlServer in tests 2015-03-20 17:04:48 -07:00
ajcvickers a76b6cac24 Stop passing IConfiguration to AddEntityFramework 2015-03-20 14:25:25 -07:00
Praburaj 9faa6f8230 Copying the AspNet.Loader.dll only on non-kpm bundle scenario 2015-03-18 11:38:03 -07:00
Praburaj 36a3262661 Moving some IIS express related helpers to a different class. 2015-03-17 14:26:19 -07:00
Praburaj 6445f6388b Temporarily disable the --no-source test variation
Seems to fail on CI but not on local machines. Investigating this.
2015-03-17 14:24:52 -07:00
Praburaj 6dc2417f9e Adding some coverage for the --no-source switch 2015-03-17 12:46:02 -07:00
ianhong 1b502cbee7 Music Store sample Unit Tests - (except usermanager and signinmanager) 2015-03-17 11:12:51 -07:00
Hao Kung 47b34cd1da React to auth changes 2015-03-16 18:38:53 -07:00
Praburaj 5004bac6aa React to AddSessionServices rename to AddSession 2015-03-13 11:56:20 -07:00
N. Taylor Mullen 649a74a753 Update xunit.runner.kre => xunit.runner.aspnet. 2015-03-13 00:34:51 -07:00
Praburaj 36271260a1 Reacting to Caching extension rename 2015-03-12 17:06:16 -07:00
Praburaj ad9e11ed2e React to Caching package rename
Dependent on https://github.com/aspnet/Caching/pull/49/files
2015-03-11 17:39:00 -07:00